SL-14 DEB, 45350

Orbit data source: Space-Track

SL-14 DEB, 45350 is space debris in LEO originally from a launch on Thu, 15 Aug 1991 UTC launched from the Plesetsk Missile And Space Complex (PKMTR). Debris objects in space refer to the collection of defunct objects orbiting the Earth. Examples of debris include non-operational satellites, rocket bodies, and fragments generated from explosions, collisions, or faulty payload assembly.

Loading next visibility...
Identifier
45350, 1991-056CJ
Orbit
LEO
Country
Flag of CISCIS
Related business
Manufacturer
Unknown
Mission
Spacecraft
Bus & Motor
Unknown
Mass
Unknown
Launch date (UTC)
1991-08-15 (35 years ago)
Launch vehicle
Unknown
Launch site
Plesetsk Missile And Space Complex (PKMTR)
Object type
Payload
Rocket body
Debris
Shape & HBR
Unknown shape, 0.1 m
Radar Cross Section
Small (<0.1 m²)

Expand to show TLE details & history
Last TLE update: 14 hours ago

TLE from 14 hours ago
0 SL-14 DEB
1 45350U 91056CJ  26071.68863238  .00000683  00000-0  16021-2 0  9997
2 45350  82.5888 203.7027 0039541 188.3414 171.7059 13.22378526293069
Epoch: 2026-03-12T16:31Z
TLE epoch observation values (Epoch: 2026-03-12T16:31:37.837Z)
Latitude
-0.00004°
Longitude
145.46012°
Altitude
1,208.028 km
Speed
7.236 km/s
True Right ascension
13h 34m 48s
True Declination
0° 00' 00"
Sunlit
Object was in full shadow at epoch
Visualization orbit readout
Latitude
Unknown
Longitude
Unknown
Altitude
Unknown
Speed
Unknown
Apparent Right ascension
Unknown
Apparent Declination
Unknown
Sunlit
N/A
Visualization observer readout
Local Sidereal Time
11:12:33
Azimuth
Unknown
Elevation
Unknown
Doppler factor
Unknown
Orbital elements
Apogee altitude
1,202.742 km
Perigee altitude
1,143.027 km
Semi-major axis
7,551.021 km
Eccentricity
0.00395
Inclination
82.5888°
RAAN
203.7027°
Arg. of periapsis
188.3414°
True anomaly
171.77094°
Mean anomaly
171.7059°
Eccentric anomaly
171.73845°
Mean motion
3.30776 °/min
Orbital period
108.83 mins
BSTAR
0.0016021
Loading maneuver chart data...
Computing Atmospheric mass density...
Loading historical data...
Loading historical data...
Loading historical data...
Loading historical data...
Loading historical data...
Loading historical data...
Loading historical data...

Documentation

Showing up to 5 results
|